Weather Roundup
Issued by NWS

Home | Current Version | Previous Version | Graphics & Text | Print | Product List | Glossary Off
Versions: 1 2 3 4 5 6 7 8 9 10 11 12 13 14 15 16 17 18 19 20 21 22 23 24 25 26 27 28 29 30 31 32 33 34 35 36 37 38 39 40 41 42 43 44 45 46 47 48 49 50

000
NZUS93 KARX 260559
HRRWXR

CURRENT HOURLY OBSERVATIONS ACROSS
MUCH OF THE UPPER MISSISSIPPI VALLEY
NATIONAL WEATHER SERVICE LA CROSSE WI
1200 AM CST SUN FEB 26 2017


...SOUTHEAST MINNESOTA...


CITY           SKY/WX    TMP DP  RH WIND       PRES   REMARKS
ROCHESTER      CLOUDY    21  15  78 S16       29.85F WCI   7
ROCHESTER/MAYO MOCLDY    23  15  72 S9G17     29.86F WCI  13
WINONA           N/A     25  16  68 S5        29.92F WCI  19
AUSTIN         CLOUDY    19  16  86 S7        29.85F WCI  10
ALBERT LEA     CLOUDY    25  18  74 S13       29.83F WCI  13
DODGE CENTER   NOT AVBL
PRESTON        CLOUDY    22  15  76 S10       29.88F WCI  11
OWATONNA       CLOUDY    25  16  68 S12       29.82F WCI  14
FARIBAULT      MOCLDY    23  16  74 S8        29.83F WCI  14
$$

...ELSEWHERE IN MINNESOTA...


CITY           SKY/WX    TMP DP  RH WIND       PRES   REMARKS
MINNEAPOLIS    MOCLDY    25  15  66 SW10      29.82F WCI  15
INTNL FALLS    CLEAR     12   6  77 NW3       29.66F
DULUTH         LGT SNOW  26  24  92 SW3       29.67F VSB 3/4
RED WING       CLOUDY    25  12  58 S8        29.85F WCI  16
REDWOOD FALLS  CLOUDY    27  19  72 SW14      29.76F WCI  16
MANKATO          N/A     20  15  81 S9        29.82F WCI   9
WORTHINGTON    PTCLDY    20  16  84 SW14      29.78F WCI   7
FAIRMONT       MOCLDY    19  15  84 S9        29.82F WCI   8
$$

...SOUTHWEST WISCONSIN...


CITY           SKY/WX    TMP DP  RH WIND       PRES   REMARKS
LA CROSSE      CLOUDY    24  15  68 S8        29.93F WCI  15
PRAIRIE DU CHI MOCLDY    24  16  69 S3        29.98F
BOSCOBEL       CLOUDY    22  15  75 SW6       29.99F WCI  14
LONE ROCK      NOT AVBL
PLATTEVILLE    PTCLDY    22  19  89 S5        29.99F WCI  16
FORT MC COY    CLOUDY    21  14  74 S7        29.94F WCI  12
MAUSTON-NEW LI CLOUDY    21  13  71 S6        29.94S WCI  13
VIROQUA        CLOUDY    21  15  78 SW9       29.92F WCI  10
WIS DELLS      CLOUDY    19  13  76 SW6       29.95F WCI  11
$$

...ELSEWHERE IN WISCONSIN...


CITY           SKY/WX    TMP DP  RH WIND       PRES   REMARKS
MILWAUKEE      PTCLDY    24  12  60 W8        30.00S WCI  15
MADISON        MOCLDY    20  14  77 CALM      29.98F
GREEN BAY      CLEAR     19  11  70 SW7       29.93S WCI  10
EAU CLAIRE     NOT AVBL
BLACK RVR FLS  CLOUDY    20  14  76 CALM      29.91F
MEDFORD        CLOUDY    16  11  79 SW12      29.81F WCI   3
WAUSAU         CLOUDY    17  11  77 S6        29.85F WCI   9
WIS RAPIDS     MOCLDY    18  12  77 SW10      29.91F WCI   6
MARSHFIELD     MOCLDY    17  11  77 SW12      29.86S WCI   4
RICE LAKE      CLOUDY    23  15  71 S10G17    29.82F WCI  12
$$

...NORTHEAST IOWA...


CITY           SKY/WX    TMP DP  RH WIND       PRES   REMARKS
WATERLOO       CLOUDY    26  18  71 S10       29.93F WCI  16
DUBUQUE        CLOUDY    23  18  81 S9        29.98F WCI  13
DECORAH        CLOUDY    23  18  80 S10       29.90F WCI  12
MASON CITY     CLOUDY    21  16  81 S10       29.87F WCI  10
CHARLES CITY   CLOUDY    25  19  80 S14       29.90F WCI  13
OELWEIN        CLOUDY    25  21  86 S10       29.94F WCI  15
$$

...ELSEWHERE IN IOWA...


CITY           SKY/WX    TMP DP  RH WIND       PRES   REMARKS
DES MOINES     PTCLDY    30  19  63 S9        29.92F WCI  22
IOWA CITY      CLOUDY    27  19  72 SE8       30.03F WCI  19
FORT DODGE     CLEAR     27  18  69 S14       29.86F WCI  15
MARSHALLTOWN   CLOUDY    28  20  71 S9        29.92F WCI  19
CEDAR RAPIDS   PTCLDY    24  18  77 S8        29.98F WCI  15
$$

...NORTHERN ILLINOIS...


CITY           SKY/WX    TMP DP  RH WIND       PRES   REMARKS
CHICAGO-OHARE  CLOUDY    26  15  63 W9        30.04R WCI  17
CHICAGO-MIDWAY CLOUDY    26  13  57 W12       30.05S WCI  16
MOLINE         CLOUDY    28  18  66 S7        30.05F WCI  21
ROCKFORD       PTCLDY    23  16  74 S5        30.05F WCI  17
PEORIA         CLOUDY    25  17  72 SW5       30.10R WCI  19
$$

NOTE: "FAIR" INDICATES FEW OR NO CLOUDS BELOW 12,000 FEET WITH NO
SIGNIFICANT WEATHER AND/OR OBSTRUCTIONS TO VISIBILITY. WIND
SPEEDS ARE IN MILES-PER-HOUR.




USA.gov is the U.S. government's official web portal to all federal, state and local government web resources and services.